Location: Dehesa de la Cepeda
(40.6574°N, 4.3013°W)
Time: 21:13:43
(UTC+00:00)

Vanguard 2 Rocket - Pass Details

Date: 12 August 2021
Orbit: 556 x 3324 km, 32.9° (Epoch: 19 September)

Event Time Altitude Azimuth Distance (km) Brightness Sun altitude
Rises 01:22:49 0° 208° (SSW) 6,388 - -32.7°
Reaches altitude 10° 01:29:19 10° 193° (SSW) 4,819 - -32.3°
Maximum altitude 01:36:55 18° 157° (SSE) 3,416 - -31.8°
Exits shadow 01:40:37 15° 130° (SE) 3,271 9.5 -31.5°
Drops below altitude 10° 01:42:32 10° 117° (ESE) 3,405 9.8 -31.4°
Sets 01:45:59 0° 99° (E) 3,972 10.4 -31.1°
